Time,TemperatureF,DewpointF,PressureIn,WindDirection,WindDirectionDegrees,WindSpeedMPH,WindSpeedGustMPH,Humidity,HourlyPrecipIn,Conditions,Clouds,dailyrainin,SoftwareType,DateUTC
2013-05-30 00:00:00,69.9,70.0,29.63,WNW,294,0.0,-999.0,100,-99.99,,,0.00,weatherlink.com 1.10,2013-05-29 21:00:00,
2013-05-30 00:15:00,69.6,70.0,29.63,West,280,2.0,-999.0,100,-99.99,,,0.00,weatherlink.com 1.10,2013-05-29 21:15:00,
2013-05-30 00:30:00,68.8,69.0,29.63,West,263,0.0,-999.0,100,-99.99,,,0.00,weatherlink.com 1.10,2013-05-29 21:30:00,
2013-05-30 00:45:00,67.3,67.0,29.64,NW,311,5.0,-999.0,100,-99.99,,,0.00,weatherlink.com 1.10,2013-05-29 21:45:00,
2013-05-30 01:00:00,66.0,66.0,29.64,WNW,285,3.0,-999.0,100,-99.99,,,0.00,weatherlink.com 1.10,2013-05-29 22:00:00,
2013-05-30 01:15:00,65.2,65.0,29.64,WNW,285,0.0,-999.0,100,-99.99,,,0.00,weatherlink.com 1.10,2013-05-29 22:15:00,
2013-05-30 01:30:00,64.8,65.0,29.63,West,278,0.0,-999.0,100,-99.99,,,0.00,weatherlink.com 1.10,2013-05-29 22:30:00,
2013-05-30 01:45:00,65.0,65.0,29.63,West,274,0.0,-999.0,100,-99.99,,,0.00,weatherlink.com 1.10,2013-05-29 22:45:00,
2013-05-30 02:00:00,65.2,65.0,29.62,WSW,257,0.0,-999.0,100,-99.99,,,0.00,weatherlink.com 1.10,2013-05-29 23:00:00,
2013-05-30 02:15:00,65.2,65.0,29.63,WNW,288,5.0,-999.0,100,-99.99,,,0.00,weatherlink.com 1.10,2013-05-29 23:15:00,
2013-05-30 02:30:00,64.7,65.0,29.63,WNW,294,0.0,-999.0,100,-99.99,,,0.00,weatherlink.com 1.10,2013-05-29 23:30:00,
2013-05-30 02:45:00,64.5,65.0,29.64,WSW,253,0.0,-999.0,100,-99.99,,,0.00,weatherlink.com 1.10,2013-05-29 23:45:00,
2013-05-30 03:00:00,64.0,64.0,29.64,NW,311,0.0,-999.0,100,-99.99,,,0.00,weatherlink.com 1.10,2013-05-30 00:00:00,
2013-05-30 03:15:00,63.7,64.0,29.64,West,278,0.0,-999.0,100,-99.99,,,0.00,weatherlink.com 1.10,2013-05-30 00:15:00,
2013-05-30 03:30:00,63.4,63.0,29.63,WSW,246,0.0,-999.0,100,-99.99,,,0.00,weatherlink.com 1.10,2013-05-30 00:30:00,
2013-05-30 03:45:00,63.1,63.0,29.63,WSW,248,0.0,-999.0,100,-99.99,,,0.00,weatherlink.com 1.10,2013-05-30 00:45:00,
2013-05-30 04:00:00,62.9,63.0,29.63,WSW,248,2.0,-999.0,100,-99.99,,,0.00,weatherlink.com 1.10,2013-05-30 01:00:00,
2013-05-30 04:15:00,62.9,63.0,29.63,WNW,284,5.0,-999.0,100,-99.99,,,0.00,weatherlink.com 1.10,2013-05-30 01:15:00,
2013-05-30 04:30:00,62.6,63.0,29.63,West,274,0.0,-999.0,100,-99.99,,,0.00,weatherlink.com 1.10,2013-05-30 01:30:00,
2013-05-30 04:45:00,62.6,63.0,29.63,WNW,285,0.0,-999.0,100,-99.99,,,0.00,weatherlink.com 1.10,2013-05-30 01:45:00,
2013-05-30 05:01:00,62.6,63.0,29.64,WNW,287,0.0,-999.0,100,-99.99,,,0.00,weatherlink.com 1.10,2013-05-30 02:01:00,
2013-05-30 05:16:00,62.6,63.0,29.64,WNW,287,0.0,-999.0,100,-99.99,,,0.00,weatherlink.com 1.10,2013-05-30 02:16:00,
2013-05-30 05:31:00,62.4,62.0,29.64,North,359,0.0,-999.0,100,-99.99,,,0.00,weatherlink.com 1.10,2013-05-30 02:31:00,
2013-05-30 05:46:00,62.3,62.0,29.65,WNW,302,0.0,-999.0,100,-99.99,,,0.00,weatherlink.com 1.10,2013-05-30 02:46:00,
2013-05-30 06:01:00,62.3,62.0,29.65,WNW,302,0.0,-999.0,100,-99.99,,,0.00,weatherlink.com 1.10,2013-05-30 03:01:00,
2013-05-30 06:16:00,62.1,62.0,29.65,WNW,302,0.0,-999.0,100,-99.99,,,0.00,weatherlink.com 1.10,2013-05-30 03:16:00,
2013-05-30 06:31:00,62.1,62.0,29.65,WNW,302,0.0,-999.0,100,-99.99,,,0.00,weatherlink.com 1.10,2013-05-30 03:31:00,
2013-05-30 06:46:00,62.4,62.0,29.65,WNW,302,0.0,-999.0,100,-99.99,,,0.00,weatherlink.com 1.10,2013-05-30 03:46:00,
2013-05-30 07:01:00,63.1,63.0,29.65,WNW,302,0.0,-999.0,100,-99.99,,,0.00,weatherlink.com 1.10,2013-05-30 04:01:00,
2013-05-30 07:16:00,63.7,64.0,29.66,SW,215,0.0,-999.0,100,-99.99,,,0.00,weatherlink.com 1.10,2013-05-30 04:16:00,
2013-05-30 07:31:00,64.5,65.0,29.66,SW,215,0.0,-999.0,100,-99.99,,,0.00,weatherlink.com 1.10,2013-05-30 04:31:00,
2013-05-30 07:46:00,64.8,65.0,29.66,SW,226,2.0,-999.0,100,-99.99,,,0.00,weatherlink.com 1.10,2013-05-30 04:46:00,
2013-05-30 08:01:00,66.4,66.0,29.66,South,182,1.0,-999.0,100,-99.99,,,0.00,weatherlink.com 1.10,2013-05-30 05:01:00,
2013-05-30 08:16:00,68.6,69.0,29.67,SSW,212,1.0,-999.0,100,-99.99,,,0.00,weatherlink.com 1.10,2013-05-30 05:16:00,
2013-05-30 08:31:00,70.3,70.0,29.67,South,182,0.0,-999.0,100,-99.99,,,0.00,weatherlink.com 1.10,2013-05-30 05:31:00,
2013-05-30 08:46:00,73.3,73.0,29.67,SSE,162,0.0,-999.0,100,-99.99,,,0.00,weatherlink.com 1.10,2013-05-30 05:46:00,
2013-05-30 09:01:00,74.7,75.0,29.67,South,181,0.0,-999.0,100,-99.99,,,0.00,weatherlink.com 1.10,2013-05-30 06:01:00,
2013-05-30 09:16:00,75.3,75.0,29.67,SW,230,0.0,-999.0,100,-99.99,,,0.00,weatherlink.com 1.10,2013-05-30 06:16:00,
2013-05-30 09:31:00,75.6,76.0,29.67,SW,224,0.0,-999.0,100,-99.99,,,0.00,weatherlink.com 1.10,2013-05-30 06:31:00,
2013-05-30 09:46:00,76.8,77.0,29.67,SSW,196,0.0,-999.0,100,-99.99,,,0.00,weatherlink.com 1.10,2013-05-30 06:46:00,
2013-05-30 10:01:00,77.9,78.0,29.67,SSW,209,5.0,-999.0,100,-99.99,,,0.00,weatherlink.com 1.10,2013-05-30 07:01:00,
2013-05-30 10:16:00,79.0,79.0,29.67,SW,217,1.0,-999.0,100,-99.99,,,0.00,weatherlink.com 1.10,2013-05-30 07:16:00,
2013-05-30 10:31:00,79.8,80.0,29.67,WSW,257,0.0,-999.0,100,-99.99,,,0.00,weatherlink.com 1.10,2013-05-30 07:31:00,
2013-05-30 10:46:00,79.8,80.0,29.67,SSE,151,0.0,-999.0,100,-99.99,,,0.00,weatherlink.com 1.10,2013-05-30 07:46:00,
2013-05-30 11:01:00,79.8,80.0,29.67,SSE,165,2.0,-999.0,100,-99.99,,,0.00,weatherlink.com 1.10,2013-05-30 08:01:00,
2013-05-30 11:16:00,79.8,80.0,29.67,SW,234,0.0,-999.0,100,-99.99,,,0.00,weatherlink.com 1.10,2013-05-30 08:16:00,
2013-05-30 11:31:00,79.6,80.0,29.67,South,174,0.0,-999.0,100,-99.99,,,0.00,weatherlink.com 1.10,2013-05-30 08:31:00,
2013-05-30 11:46:00,79.6,80.0,29.67,SW,229,1.0,-999.0,100,-99.99,,,0.00,weatherlink.com 1.10,2013-05-30 08:46:00,
2013-05-30 12:01:00,80.3,80.0,29.67,SW,217,4.0,-999.0,100,-99.99,,,0.00,weatherlink.com 1.10,2013-05-30 09:01:00,
2013-05-30 12:16:00,80.9,81.0,29.67,SW,217,2.0,-999.0,100,-99.99,,,0.00,weatherlink.com 1.10,2013-05-30 09:16:00,
2013-05-30 12:31:00,79.9,80.0,29.67,SW,229,8.0,-999.0,100,-99.99,,,0.00,weatherlink.com 1.10,2013-05-30 09:31:00,
2013-05-30 12:46:00,80.1,80.0,29.67,SSW,196,2.0,-999.0,100,-99.99,,,0.00,weatherlink.com 1.10,2013-05-30 09:46:00,
2013-05-30 13:01:00,80.7,81.0,29.67,NW,318,4.0,-999.0,100,-99.99,,,0.00,weatherlink.com 1.10,2013-05-30 10:01:00,
2013-05-30 13:16:00,80.1,80.0,29.67,West,277,16.0,-999.0,100,-99.99,,,0.00,weatherlink.com 1.10,2013-05-30 10:16:00,
2013-05-30 13:31:00,80.7,81.0,29.67,SSW,205,8.0,-999.0,100,-99.99,,,0.00,weatherlink.com 1.10,2013-05-30 10:31:00,
2013-05-30 13:46:00,80.9,81.0,29.66,SW,227,5.0,-999.0,100,-99.99,,,0.00,weatherlink.com 1.10,2013-05-30 10:46:00,
2013-05-30 14:01:00,82.4,82.0,29.66,SW,219,4.0,-999.0,100,-99.99,,,0.00,weatherlink.com 1.10,2013-05-30 11:01:00,
2013-05-30 14:16:00,82.0,82.0,29.66,SSW,199,5.0,-999.0,100,-99.99,,,0.00,weatherlink.com 1.10,2013-05-30 11:16:00,
2013-05-30 14:31:00,82.6,83.0,29.66,SW,219,7.0,-999.0,100,-99.99,,,0.00,weatherlink.com 1.10,2013-05-30 11:31:00,
2013-05-30 14:46:00,82.4,82.0,29.66,SW,227,5.0,-999.0,100,-99.99,,,0.00,weatherlink.com 1.10,2013-05-30 11:46:00,
2013-05-30 15:01:00,83.2,83.0,29.66,WSW,237,7.0,-999.0,100,-99.99,,,0.00,weatherlink.com 1.10,2013-05-30 12:01:00,
2013-05-30 15:16:00,82.8,83.0,29.66,SW,220,5.0,-999.0,100,-99.99,,,0.00,weatherlink.com 1.10,2013-05-30 12:16:00,
2013-05-30 15:31:00,83.6,84.0,29.66,SW,230,9.0,-999.0,100,-99.99,,,0.00,weatherlink.com 1.10,2013-05-30 12:31:00,
2013-05-30 15:46:00,84.0,84.0,29.66,WSW,254,5.0,-999.0,100,-99.99,,,0.00,weatherlink.com 1.10,2013-05-30 12:46:00,
2013-05-30 16:01:00,83.6,84.0,29.65,East,92,0.0,-999.0,100,-99.99,,,0.00,weatherlink.com 1.10,2013-05-30 13:01:00,
2013-05-30 16:16:00,84.0,84.0,29.65,WSW,254,5.0,-999.0,100,-99.99,,,0.00,weatherlink.com 1.10,2013-05-30 13:16:00,
2013-05-30 16:31:00,84.3,84.0,29.65,WSW,241,2.0,-999.0,100,-99.99,,,0.00,weatherlink.com 1.10,2013-05-30 13:31:00,
2013-05-30 16:46:00,84.1,84.0,29.65,NW,313,12.0,-999.0,100,-99.99,,,0.00,weatherlink.com 1.10,2013-05-30 13:46:00,
2013-05-30 17:01:00,83.4,83.0,29.65,WSW,240,7.0,-999.0,100,-99.99,,,0.00,weatherlink.com 1.10,2013-05-30 14:01:00,
2013-05-30 17:16:00,83.8,84.0,29.65,SSW,213,7.0,-999.0,100,-99.99,,,0.00,weatherlink.com 1.10,2013-05-30 14:16:00,
2013-05-30 17:31:00,84.1,84.0,29.64,SSW,210,5.0,-999.0,100,-99.99,,,0.00,weatherlink.com 1.10,2013-05-30 14:31:00,
2013-05-30 17:46:00,84.5,85.0,29.64,SSW,206,0.0,-999.0,100,-99.99,,,0.00,weatherlink.com 1.10,2013-05-30 14:46:00,
2013-05-30 18:01:00,84.5,85.0,29.64,South,172,5.0,-999.0,100,-99.99,,,0.00,weatherlink.com 1.10,2013-05-30 15:01:00,
2013-05-30 18:16:00,82.6,83.0,29.65,SSE,165,6.0,-999.0,100,-99.99,,,0.00,weatherlink.com 1.10,2013-05-30 15:16:00,
2013-05-30 18:31:00,80.7,81.0,29.65,SSE,157,7.0,-999.0,100,-99.99,,,0.00,weatherlink.com 1.10,2013-05-30 15:31:00,
2013-05-30 18:46:00,79.0,79.0,29.65,SSE,164,7.0,-999.0,100,-99.99,,,0.00,weatherlink.com 1.10,2013-05-30 15:46:00,
2013-05-30 19:01:00,78.3,78.0,29.65,SSE,165,5.0,-999.0,100,-99.99,,,0.00,weatherlink.com 1.10,2013-05-30 16:01:00,
2013-05-30 19:16:00,78.1,78.0,29.65,SSE,152,2.0,-999.0,100,-99.99,,,0.00,weatherlink.com 1.10,2013-05-30 16:16:00,
2013-05-30 19:31:00,77.2,77.0,29.65,SSE,155,8.0,-999.0,100,-99.99,,,0.00,weatherlink.com 1.10,2013-05-30 16:31:00,
2013-05-30 19:46:00,75.4,75.0,29.66,SSE,165,3.0,-999.0,100,-99.99,,,0.00,weatherlink.com 1.10,2013-05-30 16:46:00,
2013-05-30 20:01:00,74.6,75.0,29.65,SSW,199,1.0,-999.0,100,-99.99,,,0.00,weatherlink.com 1.10,2013-05-30 17:01:00,
2013-05-30 20:16:00,73.9,74.0,29.66,SSE,157,0.0,-999.0,100,-99.99,,,0.00,weatherlink.com 1.10,2013-05-30 17:16:00,
2013-05-30 20:31:00,73.3,73.0,29.66,South,189,0.0,-999.0,100,-99.99,,,0.00,weatherlink.com 1.10,2013-05-30 17:31:00,
2013-05-30 20:46:00,72.8,73.0,29.66,SSW,209,1.0,-999.0,100,-99.99,,,0.00,weatherlink.com 1.10,2013-05-30 17:46:00,
2013-05-30 21:01:00,72.5,73.0,29.66,SSE,152,2.0,-999.0,100,-99.99,,,0.00,weatherlink.com 1.10,2013-05-30 18:01:00,
2013-05-30 21:16:00,72.0,72.0,29.67,South,182,2.0,-999.0,100,-99.99,,,0.00,weatherlink.com 1.10,2013-05-30 18:16:00,
2013-05-30 21:31:00,72.0,72.0,29.67,SE,141,0.0,-999.0,100,-99.99,,,0.00,weatherlink.com 1.10,2013-05-30 18:31:00,
2013-05-30 21:46:00,71.6,72.0,29.68,South,169,2.0,-999.0,100,-99.99,,,0.00,weatherlink.com 1.10,2013-05-30 18:46:00,
2013-05-30 22:01:00,71.5,72.0,29.68,SSW,200,7.0,-999.0,100,-99.99,,,0.00,weatherlink.com 1.10,2013-05-30 19:01:00,
2013-05-30 22:16:00,71.5,72.0,29.68,SSW,206,6.0,-999.0,100,-99.99,,,0.00,weatherlink.com 1.10,2013-05-30 19:16:00,
2013-05-30 22:31:00,71.8,72.0,29.68,SSW,209,1.0,-999.0,100,-99.99,,,0.00,weatherlink.com 1.10,2013-05-30 19:31:00,
2013-05-30 22:47:00,71.8,72.0,29.68,SSW,206,5.0,-999.0,100,-99.99,,,0.00,weatherlink.com 1.10,2013-05-30 19:47:00,
2013-05-30 23:02:00,71.8,72.0,29.67,SW,229,3.0,-999.0,100,-99.99,,,0.00,weatherlink.com 1.10,2013-05-30 20:02:00,
2013-05-30 23:17:00,71.6,72.0,29.67,SSE,167,0.0,-999.0,100,-99.99,,,0.00,weatherlink.com 1.10,2013-05-30 20:17:00,
2013-05-30 23:32:00,71.5,72.0,29.68,WSW,251,0.0,-999.0,100,-99.99,,,0.00,weatherlink.com 1.10,2013-05-30 20:32:00,
2013-05-30 23:47:00,71.5,72.0,29.68,South,182,0.0,-999.0,100,-99.99,,,0.00,weatherlink.com 1.10,2013-05-30 20:47:00,